Current Weather Conditions: station 62114

sailwx.info

See reports from other nearby stations

no recent reports received from weather station ID 62114

Tides Pressure Air temp Water temp Dewpoint Dewpoint depression Visibility Wind speed Wind direction Waves Ship positions
date/time (UTC)wind fromknots sea level pressurealtimeterstation pressurevisibilityair tempwater tempwave heightnotes
2014-Oct-30 14:00 120 25 9.4
2014-Oct-30 13:00 120 23 9.1
2014-Oct-30 12:00 120 22 9.0
2014-Oct-30 11:00 120 20 9.0
2014-Oct-30 10:00 140 20 9.5
2014-Oct-30 09:00 140 20 10.0
2014-Oct-30 08:00 140 20 9.9
2014-Oct-30 07:00 140 18 9.9
2014-Oct-30 06:00 140 19 10.1
2014-Oct-30 05:00 140 16 10.0
2014-Oct-30 04:00 150 14 10.0
2014-Oct-30 03:00 150 10 9.9
2014-Oct-30 02:00 160 9 9.8
2014-Oct-30 01:00 160 8 9.8
2014-Oct-30 00:00 170 9 9.7
2014-Oct-29 23:00 160 6 9.7
2014-Oct-29 22:00 170 5 9.7
2014-Oct-29 21:00 200 2 9.8
2014-Oct-29 20:00 210 4 9.8
2014-Oct-29 19:00 220 5 9.8
2014-Oct-29 18:00 250 7 9.8
2014-Oct-29 17:00 270 5 10.3
2014-Oct-29 16:00 270 7 10.0
2014-Oct-29 15:00 260 9 10.0
2014-Oct-29 14:00 270 8 10.0
2014-Oct-29 13:00 280 10 10.0
2014-Oct-29 12:00 290 10 10.1
2014-Oct-29 11:00 270 13 9.8
2014-Oct-29 10:00 280 15 9.8
2014-Oct-29 09:00 270 15 9.4
2014-Oct-29 08:00 280 18 9.1
2014-Oct-29 07:00 280 20 9.0
2014-Oct-29 06:00 270 23 8.9
2014-Oct-29 05:00 280 24 9.1
2014-Oct-29 04:00 270 26 9.2
2014-Oct-29 03:00 260 22 9.3
2014-Oct-29 02:00 260 19 9.1
2014-Oct-29 01:00 270 20 9.1
2014-Oct-29 00:00 260 19 9.2
2014-Oct-28 23:00 270 20 9.2
2014-Oct-28 22:00 270 17 9.4
2014-Oct-28 21:00 270 10 7.6
2014-Oct-28 20:00 280 15 9.0
2014-Oct-28 19:00 280 17 9.6
2014-Oct-28 18:00 280 16 9.6
2014-Oct-28 17:00 290 17 9.8
2014-Oct-28 16:00 290 18 9.7